SCISAT 1

Last updated on Mon Oct 20 2025 00:03:35 GMT+0000 (Coordinated Universal Time)

1 27858U 03036A 25292.31515725 .00001550 00000+0 20481-3 0 9999 2 27858 73.9285 289.7769 0006426 38.6895 321.4740 14.80965410195780
UTC large
Height (km)
Speed (km/s)
/
Latitude / Longitude
Inclination (degrees)
Orbital Period (minutes)
Azimuth
Elevation
Range (km)
Doppler Factor

Next 0 passes for location: London (51.5072 / 0.1276)

Sorry there are no passes over London.